Погода в Коростыни

Россия / Новгородская область     58°11′10″N   30°59′14″E
темп.,
°C
ветер,
м/с
пор.,
м/с
влажн.,
%
обл.,
%
осадки,
мм/ч
давл.,
гПа
погр.,
м
15 августа, пн
пн1500:00+20всв33755 0.0 101926
03:00+19в33805 0.0 101933
06:00+18юв33805 0.0 102083
09:00+21вюв34670 0.0 1020239
12:00+23в34612 0.0 1020495
15:00+25вюв245557 0.0 10191152
18:00+25вюв4759100 0.0 1018212
21:00+21юв487061 0.0 1019109
16 августа, вт
вт1600:00+20юв36738 0.0 1019123
03:00+19юв34786 0.0 101964
06:00+18юв34827 0.0 101997
09:00+21юв467125 0.0 1019273
12:00+24вюв466164 0.0 1019500
15:00+26вюв35518 0.0 10181151
18:00+26вюв345290 0.0 1018126
21:00+21ю486999 0.0 1019152
17 августа, ср
ср1700:00+19ю358096 0.0 1020120
03:00+20вюв5977100 0.0 1019188
06:00+19в4883100 0.4 1019179
09:00+20юв4979100 0.4 1019300
12:00+23вюв4667100 0.0 1019384
15:00+24всв3463100 0.0 1018446
18:00+23всв3468100 0.0 101888
21:00+22в3572100 0.0 101871
18 августа, чт
чт1800:00+20вюв337694 0.0 101848
03:00+19вюв11775 0.0 101811
06:00+19в22794 0.0 101817
09:00+21в33695 0.0 1018202
12:00+23всв23654 0.0 1019377
15:00+26всв22545 0.0 1018589
18:00+26св22585 0.1 1018160
21:00+23в12635 0.2 101811
19 августа, пт
пт1900:00+21всв22735 0.0 101917
03:00+19ююв11845 0.0 101912
06:00+19юв22820 0.0 102036
09:00+22юв34695 0.1 1020202
12:00+24в35574 0.0 1020464
15:00+26всв34484 0.0 1020766
18:00+25всв35550 0.0 1019154
21:00+22в47640 0.0 101995